UAE13U EDDF-OMDB

Flight info

Callsign UAE13U
Flight time N/A
Altitude 37000
Route CINDY8S/18 CINDY Z74 LAMPU DCT NOMBO Y161 MAH DCT LATLO/N0477F390 DCT OBEDI DCT BABOL DCT NISVA DCT USALI DCT OTKOK DCT RODIP DCT BELGI DCT KETEK UT38 VESAR L620 ALSUS/N0493F410 L620 BALMA UR655 LEBOR R655 KTN R785 RASLI P559 TRF R23 NEVOL N318 TAMRO T503 KSA M321 RESAL T533 RAPMA DCT KUVSO DCT KATIT DCT PEKEM M628 RIGIL G783 ELUDA/N0506F350 G783 ASPED Q308 KIPOK Q568 IMPED
Aircraft A359/H-SDE2E3GHIJ3J4J5LM1ORWXY/LB1D1

Departure

Time 2026-05-03 20:45
Airport Frankfurt Main Airport (EDDF)

Arrival

Time N/A
Airport Dubai International Airport (OMDB)
Time Latitude Longitude Altitude Speed Heading
2026-05-03 20:15 50.03142 8.57527 369 ft 0 kts 205°
2026-05-03 20:30 50.03156 8.57537 367 ft 4 kts 205°
2026-05-03 20:31 50.03181 8.57554 368 ft 4 kts 205°
2026-05-03 20:31 50.03203 8.57571 368 ft 2 kts 205°
2026-05-03 20:31 50.03220 8.57584 368 ft 4 kts 234°
2026-05-03 20:31 50.03227 8.57605 367 ft 5 kts 282°
2026-05-03 20:32 50.03223 8.57627 369 ft 6 kts 295°
2026-05-03 20:32 50.03232 8.57595 367 ft 3 kts 295°
2026-05-03 20:32 50.03233 8.57593 369 ft 4 kts 295°
2026-05-03 20:35 50.03242 8.57561 366 ft 6 kts 292°
2026-05-03 20:35 50.03262 8.57491 365 ft 8 kts 294°
2026-05-03 20:35 50.03289 8.57400 364 ft 11 kts 294°
2026-05-03 20:36 50.03330 8.57258 369 ft 15 kts 294°
2026-05-03 20:36 50.03348 8.57096 363 ft 16 kts 259°
2026-05-03 20:36 50.03307 8.56922 363 ft 18 kts 249°
2026-05-03 20:36 50.03261 8.56733 356 ft 20 kts 249°
2026-05-03 20:37 50.03210 8.56517 359 ft 22 kts 250°
2026-05-03 20:37 50.03157 8.56293 361 ft 22 kts 250°
2026-05-03 20:37 50.03110 8.56093 359 ft 20 kts 250°
2026-05-03 20:37 50.03061 8.55887 354 ft 21 kts 250°
2026-05-03 20:38 50.03011 8.55675 358 ft 21 kts 249°
2026-05-03 20:38 50.02974 8.55526 355 ft 13 kts 249°
2026-05-03 20:38 50.02940 8.55386 357 ft 14 kts 249°
2026-05-03 20:38 50.02904 8.55236 356 ft 15 kts 249°
2026-05-03 20:39 50.02864 8.55072 356 ft 17 kts 249°
2026-05-03 20:39 50.02819 8.54890 356 ft 19 kts 249°
2026-05-03 20:39 50.02770 8.54695 354 ft 20 kts 249°
2026-05-03 20:39 50.02721 8.54487 353 ft 21 kts 250°
2026-05-03 20:40 50.02675 8.54268 349 ft 22 kts 259°
2026-05-03 20:40 50.02628 8.54030 349 ft 24 kts 250°
2026-05-03 20:40 50.02571 8.53782 353 ft 25 kts 250°
2026-05-03 20:40 50.02508 8.53534 351 ft 24 kts 248°
2026-05-03 20:41 50.02449 8.53291 351 ft 22 kts 250°
2026-05-03 20:41 50.02403 8.53054 341 ft 23 kts 269°
2026-05-03 20:41 50.02487 8.52853 353 ft 22 kts 324°
2026-05-03 20:41 50.02635 8.52824 348 ft 23 kts 359°
2026-05-03 20:42 50.02787 8.52823 346 ft 17 kts
2026-05-03 20:42 50.02831 8.52824 349 ft 6 kts
2026-05-03 20:42 50.02856 8.52824 351 ft 0 kts
2026-05-03 20:43 50.02911 8.52825 349 ft 18 kts
2026-05-03 20:43 50.03045 8.52825 342 ft 20 kts
2026-05-03 20:43 50.03188 8.52824 351 ft 21 kts 359°
2026-05-03 20:43 50.03343 8.52821 348 ft 22 kts 359°
2026-05-03 20:44 50.03437 8.52719 349 ft 16 kts 269°
2026-05-03 20:44 50.03371 8.52592 351 ft 14 kts 191°
2026-05-03 20:44 50.03233 8.52595 343 ft 39 kts 179°
2026-05-03 20:44 50.02732 8.52599 345 ft 103 kts 179°
2026-05-03 20:45 50.01823 8.52614 340 ft 156 kts 179°
2026-05-03 20:45 50.00622 8.52655 595 ft 183 kts 180°
2026-05-03 20:45 49.99320 8.52705 1321 ft 189 kts 180°
2026-05-03 20:45 49.97978 8.52770 1897 ft 203 kts 181°
2026-05-03 20:46 49.96576 8.53448 2410 ft 226 kts 149°
2026-05-03 20:46 49.95543 8.55389 3158 ft 240 kts 124°
2026-05-03 20:46 49.94729 8.57705 3943 ft 244 kts 123°
2026-05-03 20:46 49.94095 8.60154 4744 ft 251 kts 107°
2026-05-03 20:47 49.93872 8.62942 5245 ft 272 kts 98°
2026-05-03 20:47 49.93778 8.65969 5795 ft 285 kts 97°
2026-05-03 20:47 49.93404 8.68964 6494 ft 278 kts 121°
2026-05-03 20:47 49.92263 8.71218 7227 ft 264 kts 148°
2026-05-03 20:48 49.90776 8.72932 7897 ft 265 kts 152°
2026-05-03 20:48 49.89272 8.74583 8542 ft 270 kts 149°
2026-05-03 20:48 49.87969 8.76753 9177 ft 283 kts 130°
2026-05-03 20:48 49.86832 8.79275 9806 ft 283 kts 137°
2026-05-03 20:49 49.85535 8.81567 10297 ft 288 kts 139°
2026-05-03 20:49 49.84122 8.83907 10562 ft 303 kts 140°
2026-05-03 20:49 49.82630 8.86308 10827 ft 317 kts 140°
2026-05-03 20:49 49.81073 8.88804 11094 ft 331 kts 139°
2026-05-03 20:50 49.79436 8.91443 11355 ft 344 kts 139°
2026-05-03 20:50 49.77758 8.94167 11619 ft 356 kts 138°
2026-05-03 20:50 49.76051 8.96958 11925 ft 365 kts 138°
2026-05-03 20:50 49.74283 8.99864 12340 ft 371 kts 137°
2026-05-03 20:51 49.72528 9.02752 12767 ft 375 kts 137°
2026-05-03 20:51 49.70708 9.05745 13204 ft 379 kts 137°
2026-05-03 20:51 49.68902 9.08703 13627 ft 383 kts 137°
2026-05-03 20:51 49.67060 9.11713 13975 ft 387 kts 137°
2026-05-03 20:52 49.65215 9.14723 14344 ft 389 kts 137°
2026-05-03 20:52 49.63348 9.17765 14939 ft 392 kts 137°
2026-05-03 20:52 49.61457 9.20839 15647 ft 394 kts 137°
2026-05-03 20:52 49.59557 9.23922 16307 ft 397 kts 137°
2026-05-03 20:53 49.57658 9.26997 16927 ft 401 kts 137°
2026-05-03 20:53 49.55724 9.30125 17580 ft 404 kts 137°
2026-05-03 20:53 49.53766 9.33292 18210 ft 408 kts 136°
2026-05-03 20:53 49.51812 9.36449 18776 ft 412 kts 136°
2026-05-03 20:54 49.49824 9.39658 19352 ft 415 kts 136°
2026-05-03 20:54 49.45815 9.46116 20578 ft 421 kts 137°
2026-05-03 20:54 49.43773 9.49399 21161 ft 424 kts 137°
2026-05-03 20:55 49.41745 9.52655 21760 ft 428 kts 137°
2026-05-03 20:55 49.39685 9.55957 22350 ft 431 kts 137°
2026-05-03 20:55 49.37587 9.59317 22935 ft 435 kts 137°
2026-05-03 20:55 49.35495 9.62661 23512 ft 438 kts 137°
2026-05-03 20:56 49.33365 9.66062 24013 ft 442 kts 137°
2026-05-03 20:56 49.31242 9.69447 24493 ft 445 kts 137°
2026-05-03 20:56 49.29089 9.72877 24997 ft 448 kts 137°
2026-05-03 20:56 49.26907 9.76346 25497 ft 451 kts 137°
2026-05-03 20:57 49.24727 9.79808 25990 ft 454 kts 137°
2026-05-03 20:57 49.22546 9.83268 26473 ft 456 kts 137°
2026-05-03 20:57 49.20332 9.86775 26949 ft 459 kts 137°
2026-05-03 20:57 49.18096 9.90311 27433 ft 462 kts 137°
2026-05-03 20:58 49.15874 9.93821 27921 ft 465 kts 137°
2026-05-03 20:58 49.13612 9.97389 28392 ft 468 kts 137°
2026-05-03 20:58 49.12092 9.99784 28688 ft 470 kts 137°
2026-05-03 20:58 49.09043 10.04581 29271 ft 474 kts 137°
2026-05-03 20:59 49.07512 10.06987 29556 ft 475 kts 137°
2026-05-03 20:59 49.05188 10.10624 29968 ft 478 kts 138°
2026-05-03 20:59 49.02809 10.14140 30323 ft 479 kts 140°
2026-05-03 20:59 49.00339 10.17609 30660 ft 481 kts 141°
2026-05-03 21:00 48.97868 10.21013 30988 ft 483 kts 141°
2026-05-03 21:00 48.96203 10.23303 31192 ft 484 kts 141°
2026-05-03 21:00 48.92873 10.27914 31632 ft 486 kts 140°
2026-05-03 21:00 48.90390 10.31384 32101 ft 484 kts 140°
2026-05-03 21:01 48.87896 10.34886 32560 ft 483 kts 140°
2026-05-03 21:01 48.85456 10.38318 32974 ft 481 kts 140°
2026-05-03 21:01 48.82998 10.41775 33431 ft 480 kts 140°
2026-05-03 21:01 48.80573 10.45294 33838 ft 480 kts 137°
2026-05-03 21:02 48.78286 10.48905 34208 ft 479 kts 136°
2026-05-03 21:02 48.76008 10.52644 34497 ft 480 kts 135°
2026-05-03 21:02 48.73766 10.56352 34753 ft 480 kts 135°
2026-05-03 21:02 48.71484 10.60106 35017 ft 481 kts 136°
2026-05-03 21:03 48.69227 10.63774 35280 ft 481 kts 136°
2026-05-03 21:03 48.66911 10.67494 35536 ft 481 kts 136°
2026-05-03 21:03 48.64627 10.71135 35781 ft 481 kts 136°
2026-05-03 21:03 48.62302 10.74828 36010 ft 482 kts 136°
2026-05-03 21:04 48.60006 10.78459 36230 ft 483 kts 136°
2026-05-03 21:04 48.57666 10.82154 36461 ft 483 kts 136°
2026-05-03 21:04 48.55372 10.85795 36685 ft 484 kts 136°
2026-05-03 21:04 48.53053 10.89503 36902 ft 485 kts 136°
2026-05-03 21:05 48.50729 10.93224 37130 ft 485 kts 136°
2026-05-03 21:05 48.48408 10.96937 37356 ft 485 kts 136°
2026-05-03 21:05 48.46100 11.00604 37581 ft 485 kts 136°
2026-05-03 21:05 48.43917 11.04508 37797 ft 488 kts 130°
2026-05-03 21:06 48.41866 11.08616 37970 ft 489 kts 128°
2026-05-03 21:06 48.39900 11.12749 37995 ft 494 kts 128°
2026-05-03 21:06 48.35935 11.21317 38139 ft 498 kts 127°
2026-05-03 21:07 48.33967 11.25574 38407 ft 496 kts 127°
2026-05-03 21:07 48.32006 11.29793 38694 ft 494 kts 127°
2026-05-03 21:07 48.30688 11.32612 38845 ft 492 kts 127°
2026-05-03 21:07 48.29625 11.34878 38967 ft 491 kts 127°
2026-05-03 21:08 48.27647 11.39080 39198 ft 489 kts 128°
2026-05-03 21:08 48.25691 11.43223 39423 ft 487 kts 127°
2026-05-03 21:08 48.23745 11.47334 39655 ft 485 kts 127°
2026-05-03 21:08 48.21807 11.51421 39897 ft 482 kts 127°
2026-05-03 21:09 48.19845 11.55554 39998 ft 483 kts 127°
2026-05-03 21:09 48.17914 11.59613 39994 ft 486 kts 127°
2026-05-03 21:09 48.13941 11.67947 39991 ft 492 kts 127°
2026-05-03 21:10 48.09936 11.76329 39986 ft 498 kts 127°
2026-05-03 21:10 48.05891 11.84770 39983 ft 502 kts 127°
2026-05-03 21:11 48.01819 11.93243 39974 ft 504 kts 127°
2026-05-03 21:11 47.97714 12.01755 39970 ft 506 kts 127°
2026-05-03 21:12 47.93602 12.10256 39966 ft 506 kts 127°
2026-05-03 21:12 47.89461 12.18789 39965 ft 506 kts 127°
2026-05-03 21:13 47.85331 12.27275 39965 ft 506 kts 127°
2026-05-03 21:13 47.81207 12.35720 39962 ft 507 kts 127°
2026-05-03 21:14 47.77050 12.44207 39962 ft 507 kts 127°
2026-05-03 21:14 47.72909 12.52633 39962 ft 507 kts 127°
2026-05-03 21:15 47.68725 12.61124 39962 ft 507 kts 127°
2026-05-03 21:15 47.64567 12.69534 39967 ft 507 kts 127°
2026-05-03 21:16 47.60375 12.77986 39971 ft 507 kts 127°
2026-05-03 21:16 47.56198 12.86382 39972 ft 507 kts 127°
2026-05-03 21:17 47.52702 12.93391 39980 ft 507 kts 127°
2026-05-03 21:17 47.47807 13.03174 39988 ft 507 kts 127°
2026-05-03 21:18 47.43624 13.11509 40002 ft 507 kts 128°
2026-05-03 21:18 47.39411 13.19873 40011 ft 507 kts 128°